ONEWEB-0572 (55151 NORAD) Tracking and Keplerian Element Data

This shows tracking and keplerian element data for the satellite.

Feedback or suggestion? Click here.




ElementValue
Catalog55151
NameONEWEB-0572
Epoch Orbit130
Epoch Day13.91667824
Epoch Year2023
RAAN284.1447
Inclination86.5119
Eccentricity0.0011143
Argument of Perigee200.9164
Mean Anonmoly67.3232
Mean Motion14.91158476
Decay Rate-0.00048079
L11 55151U 23004M 23013.91667824 -.00048079 00000+0 -48830-2 0 9992
L22 55151 86.5119 284.1447 0011143 200.9164 67.3232 14.91158476 1304



Live tracking and technical data element details for ONEWEB-0572 (NORAD 55151). ONEWEB-0572 can be tracked NOW for your location showing map with azimuth and elevation plus other details from your city location.







IsCatalogInMostPopularTable: catalog: 55151, numindb: 3
Update: records affected: 1



GetName: 55151 ONEWEB-0572

Hit Count: updated at: Tue, 07 Feb 2023 14:53:08 GMT